Location: Mococo
(38.0255°N, 122.1161°W)
Time: 02:59:16
(UTC+00:00)

Cosmos 2333 Rocket - Pass Details

Date: 13 February 2026
Orbit: 840 x 862 km, 70.8° (Epoch: 7 March)

Event Time Altitude Azimuth Distance (km) Brightness Sun altitude
Rises 14:13:59 0° 191° (S) 3,423 5.4 -9.8°
Reaches altitude 10° 14:16:28 10° 188° (S) 2,490 4.7 -9.3°
Maximum altitude 14:22:06 62° 109° (ESE) 963 2.9 -8.2°
Drops below altitude 10° 14:27:45 10° 30° (NNE) 2,496 4.9 -7.1°
Sets 14:30:14 0° 27° (NNE) 3,433 5.6 -6.6°
